Location: Newark
(23.1300°N, 73.6109°E)
Time: 05:21:57
(UTC+00:00)

NOAA 18 - Pass Details

Date: 18 June 2021
Orbit: 840 x 861 km, 99.0° (Epoch: 27 July)

Event Time Altitude Azimuth Distance (km) Brightness Sun altitude
Exits shadow 17:25:49 26° 291° (WNW) 1,627 7.0 -37.4°
Drops below altitude 10° 17:28:58 10° 322° (NW) 2,487 8.3 -37.7°
Sets 17:31:38 0° 332° (NNW) 3,428 9.3 -38.0°
